User: anonymous   Login
Location: Charleston
(38.3500°N, 81.6330°W)
Time: 14:11:43
(UTC-05:00)
Language:

Cosmos 2228 - Orbit

View from above orbital plane
View from above orbital plane
View from above satellite
View from above satellite

Ground track
Ground track

The orbit data is extracted from the following two-line orbital elements,

1 22286U 92094A   17049.80158076  .00000281  00000-0  28011-4 0  9997
2 22286  82.5222 125.7242 0021477 151.0033 209.2383 14.87609738304894
Epoch (UTC): 18 February 2017 19:14:16
Eccentricity: 0.0021477
inclination: 82.5222°
perigee height: 590 km
apogee height: 620 km
right ascension of ascending node: 125.7242°
argument of perigee: 151.0033°
revolutions per day: 14.87609738
mean anomaly at epoch: 209.2383°
orbit number at epoch: 30489

The dashed part of the orbit path shows where the satellite is in the earth's shadow,  

DLR